Time,TemperatureF,DewpointF,PressureIn,WindDirection,WindDirectionDegrees,WindSpeedMPH,WindSpeedGustMPH,Humidity,HourlyPrecipIn,Conditions,Clouds,dailyrainin,SoftwareType,DateUTC
2013-01-17 00:03:00,35.1,30.2,30.25,North,8,5.0,7.0,82,0.00,,FEW250,0.00,VWS V14.01,2013-01-17 06:03:00,
2013-01-17 00:08:00,34.9,30.3,30.25,NNE,14,4.0,5.0,83,0.00,,FEW250,0.00,VWS V14.01,2013-01-17 06:08:00,
2013-01-17 00:13:00,34.6,30.0,30.25,North,354,1.0,5.0,83,0.00,,FEW250,0.00,VWS V14.01,2013-01-17 06:13:00,
2013-01-17 00:18:00,34.3,30.0,30.26,North,8,1.0,3.0,84,0.00,,FEW250,0.00,VWS V14.01,2013-01-17 06:18:00,
2013-01-17 00:23:00,33.9,29.6,30.26,NNW,333,3.0,3.0,84,0.00,,FEW250,0.00,VWS V14.01,2013-01-17 06:23:00,
2013-01-17 00:28:00,33.6,29.3,30.27,North,359,4.0,4.0,84,0.00,,FEW250,0.00,VWS V14.01,2013-01-17 06:28:00,
2013-01-17 00:33:00,33.3,29.3,30.27,North,4,10.0,10.0,85,0.00,,FEW250,0.00,VWS V14.01,2013-01-17 06:33:00,
2013-01-17 00:38:00,33.0,29.0,30.27,North,4,7.0,13.0,85,0.00,,FEW250,0.00,VWS V14.01,2013-01-17 06:38:00,
2013-01-17 00:43:00,32.7,28.7,30.27,NNE,18,5.0,7.0,85,0.00,,BKN013,0.00,VWS V14.01,2013-01-17 06:43:00,
2013-01-17 00:48:00,32.3,28.6,30.27,NNE,16,6.0,12.0,86,0.00,,BKN013,0.00,VWS V14.01,2013-01-17 06:48:00,
2013-01-17 00:53:00,32.1,28.4,30.28,North,10,8.0,11.0,86,0.00,,SCT250,0.00,VWS V14.01,2013-01-17 06:53:00,
2013-01-17 00:58:00,31.9,28.2,30.28,North,354,3.0,6.0,86,0.00,,SCT250,0.00,VWS V14.01,2013-01-17 06:58:00,
2013-01-17 01:03:00,31.7,28.0,30.29,NW,315,4.0,5.0,86,0.00,,SCT250,0.00,VWS V14.01,2013-01-17 07:03:00,
2013-01-17 01:08:00,31.4,28.0,30.30,NW,324,4.0,5.0,87,0.00,,SCT250,0.00,VWS V14.01,2013-01-17 07:08:00,
2013-01-17 01:14:00,31.2,27.8,30.30,NNW,340,3.0,4.0,87,0.00,,SCT250,0.00,VWS V14.01,2013-01-17 07:14:00,
2013-01-17 01:18:00,31.0,27.6,30.30,NNE,12,8.0,8.0,87,0.00,,SCT250,0.00,VWS V14.01,2013-01-17 07:18:00,
2013-01-17 01:24:00,31.0,27.9,30.30,North,4,2.0,9.0,88,0.00,,SCT250,0.00,VWS V14.01,2013-01-17 07:24:00,
2013-01-17 01:29:00,31.0,27.9,30.30,North,354,4.0,5.0,88,0.00,,SCT250,0.00,VWS V14.01,2013-01-17 07:29:00,
2013-01-17 01:34:00,30.9,27.8,30.31,NW,325,3.0,8.0,88,0.00,,SCT250,0.00,VWS V14.01,2013-01-17 07:34:00,
2013-01-17 01:39:00,30.8,27.7,30.31,NNE,17,1.0,7.0,88,0.00,,SCT250,0.00,VWS V14.01,2013-01-17 07:39:00,
2013-01-17 01:44:00,30.8,27.7,30.31,NW,323,3.0,6.0,88,0.00,,SCT250,0.00,VWS V14.01,2013-01-17 07:44:00,
2013-01-17 01:49:00,30.6,27.5,30.31,NNE,20,3.0,4.0,88,0.00,,SCT250,0.00,VWS V14.01,2013-01-17 07:49:00,
2013-01-17 01:54:00,30.4,27.3,30.31,NW,312,5.0,5.0,88,0.00,,SCT250,0.00,VWS V14.01,2013-01-17 07:54:00,
2013-01-17 01:59:00,30.2,27.1,30.32,NNE,16,2.0,6.0,88,0.00,,SCT250,0.00,VWS V14.01,2013-01-17 07:59:00,
2013-01-17 02:04:00,30.2,27.1,30.32,NNW,343,3.0,3.0,88,0.00,,SCT250,0.00,VWS V14.01,2013-01-17 08:04:00,
2013-01-17 02:09:00,30.0,26.9,30.32,NW,324,1.0,5.0,88,0.00,,SCT250,0.00,VWS V14.01,2013-01-17 08:09:00,
2013-01-17 02:14:00,29.8,26.7,30.32,North,4,1.0,3.0,88,0.00,,SCT250,0.00,VWS V14.01,2013-01-17 08:14:00,
2013-01-17 02:19:00,29.7,26.6,30.33,NNW,343,0.0,1.0,88,0.00,,SCT250,0.00,VWS V14.01,2013-01-17 08:19:00,
2013-01-17 02:24:00,29.6,26.5,30.32,NNW,343,1.0,2.0,88,0.00,,SCT250,0.00,VWS V14.01,2013-01-17 08:24:00,
2013-01-17 02:29:00,29.4,26.3,30.32,NW,326,3.0,3.0,88,0.00,,SCT250,0.00,VWS V14.01,2013-01-17 08:29:00,
2013-01-17 02:34:00,29.3,26.5,30.33,NW,304,2.0,4.0,89,0.00,,SCT250,0.00,VWS V14.01,2013-01-17 08:34:00,
2013-01-17 02:39:00,29.2,26.1,30.33,NW,314,3.0,4.0,88,0.00,,SCT250,0.00,VWS V14.01,2013-01-17 08:39:00,
2013-01-17 02:44:00,29.2,26.1,30.33,NW,305,3.0,4.0,88,0.00,,FEW250,0.00,VWS V14.01,2013-01-17 08:44:00,
2013-01-17 02:49:00,29.1,25.7,30.33,WNW,298,3.0,4.0,87,0.00,,FEW250,0.00,VWS V14.01,2013-01-17 08:49:00,
2013-01-17 02:54:00,29.0,25.6,30.33,NW,324,4.0,5.0,87,0.00,,FEW250,0.00,VWS V14.01,2013-01-17 08:54:00,
2013-01-17 02:59:00,28.9,25.5,30.33,NW,309,3.0,4.0,87,0.00,,FEW250,0.00,VWS V14.01,2013-01-17 08:59:00,
2013-01-17 03:04:00,28.9,25.5,30.33,NW,319,2.0,4.0,87,0.00,,FEW250,0.00,VWS V14.01,2013-01-17 09:04:00,
2013-01-17 03:09:00,28.8,25.4,30.33,NW,319,0.0,2.0,87,0.00,,FEW250,0.00,VWS V14.01,2013-01-17 09:09:00,
2013-01-17 03:14:00,28.8,25.4,30.33,WNW,302,2.0,2.0,87,0.00,,FEW250,0.00,VWS V14.01,2013-01-17 09:14:00,
2013-01-17 03:19:00,28.7,25.3,30.34,NW,305,2.0,3.0,87,0.00,,FEW250,0.00,VWS V14.01,2013-01-17 09:19:00,
2013-01-17 03:24:00,28.6,25.2,30.34,WNW,295,2.0,3.0,87,0.00,,FEW250,0.00,VWS V14.01,2013-01-17 09:24:00,
2013-01-17 03:29:00,28.4,25.3,30.34,WNW,295,1.0,2.0,88,0.00,,FEW250,0.00,VWS V14.01,2013-01-17 09:29:00,
2013-01-17 03:34:00,28.2,25.1,30.34,WNW,295,1.0,4.0,88,0.00,,FEW250,0.00,VWS V14.01,2013-01-17 09:34:00,
2013-01-17 03:39:00,27.9,24.8,30.34,WNW,294,2.0,4.0,88,0.00,,FEW250,0.00,VWS V14.01,2013-01-17 09:39:00,
2013-01-17 03:44:00,27.8,25.0,30.34,WNW,295,3.0,3.0,89,0.00,,CLR,0.00,VWS V14.01,2013-01-17 09:44:00,
2013-01-17 03:49:00,28.0,25.2,30.34,WNW,295,1.0,2.0,89,0.00,,CLR,0.00,VWS V14.01,2013-01-17 09:49:00,
2013-01-17 03:54:00,28.1,25.5,30.35,WNW,295,1.0,2.0,90,0.00,,CLR,0.00,VWS V14.01,2013-01-17 09:54:00,
2013-01-17 03:59:00,28.1,25.3,30.35,WNW,295,0.0,2.0,89,0.00,,CLR,0.00,VWS V14.01,2013-01-17 09:59:00,
2013-01-17 04:05:00,28.1,25.5,30.36,WNW,295,1.0,1.0,90,0.00,,CLR,0.00,VWS V14.01,2013-01-17 10:05:00,
2013-01-17 04:10:00,28.2,25.6,30.36,WNW,295,0.0,1.0,90,0.00,,CLR,0.00,VWS V14.01,2013-01-17 10:10:00,
2013-01-17 04:15:00,28.1,25.5,30.36,WNW,295,0.0,1.0,90,0.00,,CLR,0.00,VWS V14.01,2013-01-17 10:15:00,
2013-01-17 04:20:00,28.0,25.2,30.36,WNW,295,2.0,3.0,89,0.00,,CLR,0.00,VWS V14.01,2013-01-17 10:20:00,
2013-01-17 04:25:00,28.1,25.5,30.36,WNW,294,3.0,4.0,90,0.00,,CLR,0.00,VWS V14.01,2013-01-17 10:25:00,
2013-01-17 04:30:00,28.2,25.6,30.36,WNW,294,3.0,3.0,90,0.00,,CLR,0.00,VWS V14.01,2013-01-17 10:30:00,
2013-01-17 04:35:00,28.1,25.5,30.36,WNW,294,1.0,3.0,90,0.00,,CLR,0.00,VWS V14.01,2013-01-17 10:35:00,
2013-01-17 04:40:00,28.0,25.5,30.36,WNW,294,3.0,3.0,90,0.00,,CLR,0.00,VWS V14.01,2013-01-17 10:40:00,
2013-01-17 04:45:00,27.8,25.2,30.36,WNW,294,2.0,2.0,90,0.00,,FEW013,0.00,VWS V14.01,2013-01-17 10:45:00,
2013-01-17 04:50:00,27.6,25.1,30.36,WNW,294,0.0,3.0,90,0.00,,FEW013,0.00,VWS V14.01,2013-01-17 10:50:00,
2013-01-17 04:55:00,27.6,25.1,30.36,West,267,2.0,3.0,90,0.00,,FEW013,0.00,VWS V14.01,2013-01-17 10:55:00,
2013-01-17 05:00:00,27.5,25.0,30.36,WNW,283,1.0,2.0,90,0.00,,FEW013,0.00,VWS V14.01,2013-01-17 11:00:00,
2013-01-17 05:05:00,27.2,24.7,30.37,WNW,283,1.0,2.0,90,0.00,,FEW013,0.00,VWS V14.01,2013-01-17 11:05:00,
2013-01-17 05:10:00,27.0,24.7,30.37,WNW,295,3.0,3.0,91,0.00,,FEW013,0.00,VWS V14.01,2013-01-17 11:10:00,
2013-01-17 05:15:00,26.8,24.5,30.38,WNW,295,2.0,3.0,91,0.00,,FEW013,0.00,VWS V14.01,2013-01-17 11:15:00,
2013-01-17 05:20:00,26.6,24.3,30.38,WNW,295,3.0,3.0,91,0.00,,FEW013,0.00,VWS V14.01,2013-01-17 11:20:00,
2013-01-17 05:25:00,26.5,24.2,30.38,WNW,294,3.0,4.0,91,0.00,,FEW013,0.00,VWS V14.01,2013-01-17 11:25:00,
2013-01-17 05:30:00,26.5,24.2,30.39,WNW,291,3.0,3.0,91,0.00,,FEW013,0.00,VWS V14.01,2013-01-17 11:30:00,
2013-01-17 05:35:00,26.3,24.0,30.38,NW,305,3.0,4.0,91,0.00,,FEW013,0.00,VWS V14.01,2013-01-17 11:35:00,
2013-01-17 05:40:00,26.2,23.9,30.39,WNW,291,2.0,3.0,91,0.00,,FEW013,0.00,VWS V14.01,2013-01-17 11:40:00,
2013-01-17 05:45:00,26.1,23.8,30.38,WNW,293,4.0,5.0,91,0.00,,CLR,0.00,VWS V14.01,2013-01-17 11:45:00,
2013-01-17 05:50:00,26.1,23.8,30.39,WNW,291,3.0,5.0,91,0.00,,CLR,0.00,VWS V14.01,2013-01-17 11:50:00,
2013-01-17 05:55:00,26.0,23.7,30.39,WNW,293,2.0,4.0,91,0.00,,CLR,0.00,VWS V14.01,2013-01-17 11:55:00,
2013-01-17 06:00:00,25.9,23.6,30.39,WNW,293,1.0,2.0,91,0.00,,CLR,0.00,VWS V14.01,2013-01-17 12:00:00,
2013-01-17 06:05:00,25.8,23.5,30.39,WNW,293,2.0,3.0,91,0.00,,CLR,0.00,VWS V14.01,2013-01-17 12:05:00,
2013-01-17 06:10:00,25.7,23.4,30.39,WNW,293,1.0,2.0,91,0.00,,CLR,0.00,VWS V14.01,2013-01-17 12:10:00,
2013-01-17 06:15:00,25.7,23.4,30.39,WNW,293,1.0,2.0,91,0.00,,CLR,0.00,VWS V14.01,2013-01-17 12:15:00,
2013-01-17 06:20:00,25.5,23.2,30.39,NNE,17,0.0,1.0,91,0.00,,CLR,0.00,VWS V14.01,2013-01-17 12:20:00,
2013-01-17 06:25:00,25.3,23.0,30.39,North,4,1.0,3.0,91,0.00,,CLR,0.00,VWS V14.01,2013-01-17 12:25:00,
2013-01-17 06:30:00,25.2,22.7,30.39,North,4,0.0,1.0,90,0.00,,CLR,0.00,VWS V14.01,2013-01-17 12:30:00,
2013-01-17 06:35:00,25.0,22.5,30.40,North,4,0.0,0.0,90,0.00,,CLR,0.00,VWS V14.01,2013-01-17 12:35:00,
2013-01-17 06:40:00,24.7,22.2,30.40,North,4,0.0,1.0,90,0.00,,CLR,0.00,VWS V14.01,2013-01-17 12:40:00,
2013-01-17 06:45:00,24.6,22.4,30.40,North,4,0.0,0.0,91,0.00,,CLR,0.00,VWS V14.01,2013-01-17 12:45:00,
2013-01-17 06:50:00,24.6,22.4,30.41,North,4,0.0,0.0,91,0.00,,CLR,0.00,VWS V14.01,2013-01-17 12:50:00,
2013-01-17 06:55:00,24.6,22.4,30.41,North,4,0.0,0.0,91,0.00,,CLR,0.00,VWS V14.01,2013-01-17 12:55:00,
2013-01-17 07:00:00,24.7,22.5,30.41,North,4,0.0,0.0,91,0.00,,CLR,0.00,VWS V14.01,2013-01-17 13:00:00,
2013-01-17 07:05:00,24.5,22.0,30.41,North,4,0.0,0.0,90,0.00,,CLR,0.00,VWS V14.01,2013-01-17 13:05:00,
2013-01-17 07:10:00,24.5,22.0,30.41,North,4,0.0,0.0,90,0.00,,CLR,0.00,VWS V14.01,2013-01-17 13:10:00,
2013-01-17 07:16:00,24.4,22.2,30.41,North,4,0.0,0.0,91,0.00,,CLR,0.00,VWS V14.01,2013-01-17 13:16:00,
2013-01-17 07:21:00,24.3,22.1,30.41,North,4,0.0,0.0,91,0.00,,CLR,0.00,VWS V14.01,2013-01-17 13:21:00,
2013-01-17 07:26:00,24.2,22.0,30.41,North,4,0.0,0.0,91,0.00,,CLR,0.00,VWS V14.01,2013-01-17 13:26:00,
2013-01-17 07:31:00,24.1,21.9,30.42,North,4,0.0,0.0,91,0.00,,CLR,0.00,VWS V14.01,2013-01-17 13:31:00,
2013-01-17 07:36:00,24.0,21.8,30.42,North,4,0.0,0.0,91,0.00,,CLR,0.00,VWS V14.01,2013-01-17 13:36:00,
2013-01-17 07:41:00,24.0,21.8,30.42,North,4,0.0,0.0,91,0.00,,SCT037,0.00,VWS V14.01,2013-01-17 13:41:00,
2013-01-17 07:46:00,23.9,21.7,30.42,North,4,0.0,0.0,91,0.00,,SCT037,0.00,VWS V14.01,2013-01-17 13:46:00,
2013-01-17 07:51:00,23.8,21.6,30.42,North,4,0.0,0.0,91,0.00,,SCT037,0.00,VWS V14.01,2013-01-17 13:51:00,
2013-01-17 07:56:00,23.9,21.9,30.42,North,4,0.0,0.0,92,0.00,,SCT037,0.00,VWS V14.01,2013-01-17 13:56:00,
2013-01-17 08:01:00,23.9,21.9,30.43,NE,39,0.0,1.0,92,0.00,,SCT037,0.00,VWS V14.01,2013-01-17 14:01:00,
2013-01-17 08:06:00,23.8,21.8,30.43,ENE,66,2.0,2.0,92,0.00,,SCT037,0.00,VWS V14.01,2013-01-17 14:06:00,
2013-01-17 08:11:00,24.1,22.1,30.43,NE,45,2.0,4.0,92,0.00,,SCT037,0.00,VWS V14.01,2013-01-17 14:11:00,
2013-01-17 08:16:00,24.2,22.2,30.43,NE,50,2.0,4.0,92,0.00,,SCT037,0.00,VWS V14.01,2013-01-17 14:16:00,
2013-01-17 08:21:00,24.2,22.2,30.44,NE,38,2.0,4.0,92,0.00,,SCT037,0.00,VWS V14.01,2013-01-17 14:21:00,
2013-01-17 08:26:00,24.2,22.2,30.44,NNE,31,3.0,4.0,92,0.00,,SCT037,0.00,VWS V14.01,2013-01-17 14:26:00,
2013-01-17 08:31:00,24.2,22.2,30.44,NNE,33,2.0,4.0,92,0.00,,SCT037,0.00,VWS V14.01,2013-01-17 14:31:00,
2013-01-17 08:36:00,24.2,22.2,30.45,NE,36,1.0,3.0,92,0.00,,SCT037,0.00,VWS V14.01,2013-01-17 14:36:00,
2013-01-17 08:41:00,24.4,22.4,30.45,NE,36,0.0,2.0,92,0.00,,SCT039,0.00,VWS V14.01,2013-01-17 14:41:00,
2013-01-17 08:46:00,24.8,23.1,30.45,NE,37,0.0,1.0,93,0.00,,SCT039,0.00,VWS V14.01,2013-01-17 14:46:00,
2013-01-17 08:51:00,25.3,23.6,30.45,NE,42,0.0,2.0,93,0.00,,SCT039,0.00,VWS V14.01,2013-01-17 14:51:00,
2013-01-17 08:56:00,25.7,23.7,30.46,East,90,2.0,3.0,92,0.00,,SCT039,0.00,VWS V14.01,2013-01-17 14:56:00,
2013-01-17 09:01:00,25.9,23.6,30.46,NE,52,2.0,3.0,91,0.00,,SCT039,0.00,VWS V14.01,2013-01-17 15:01:00,
2013-01-17 09:06:00,26.2,23.7,30.46,ENE,59,2.0,3.0,90,0.00,,SCT039,0.00,VWS V14.01,2013-01-17 15:06:00,
2013-01-17 09:11:00,26.4,23.6,30.46,NNE,15,3.0,3.0,89,0.00,,SCT039,0.00,VWS V14.01,2013-01-17 15:11:00,
2013-01-17 09:16:00,26.6,23.5,30.46,ENE,61,0.0,2.0,88,0.00,,SCT039,0.00,VWS V14.01,2013-01-17 15:16:00,
2013-01-17 09:21:00,26.7,23.4,30.46,ENE,77,0.0,2.0,87,0.00,,SCT039,0.00,VWS V14.01,2013-01-17 15:21:00,
2013-01-17 09:26:00,26.8,23.2,30.46,ESE,106,0.0,2.0,86,0.00,,SCT039,0.00,VWS V14.01,2013-01-17 15:26:00,
2013-01-17 09:31:00,27.0,23.4,30.47,East,80,0.0,5.0,86,0.00,,SCT039,0.00,VWS V14.01,2013-01-17 15:31:00,
2013-01-17 09:36:00,27.0,23.4,30.47,ESE,112,1.0,5.0,86,0.00,,SCT039,0.00,VWS V14.01,2013-01-17 15:36:00,
2013-01-17 09:41:00,27.2,23.6,30.47,East,100,1.0,2.0,86,0.00,,SCT039,0.00,VWS V14.01,2013-01-17 15:41:00,
2013-01-17 09:46:00,27.4,23.5,30.47,East,95,1.0,2.0,85,0.00,,SCT039,0.00,VWS V14.01,2013-01-17 15:46:00,
2013-01-17 09:51:00,27.6,23.4,30.47,East,79,0.0,1.0,84,0.00,,SCT039,0.00,VWS V14.01,2013-01-17 15:51:00,
2013-01-17 09:56:00,28.0,23.8,30.47,ENE,72,3.0,4.0,84,0.00,,SCT039,0.00,VWS V14.01,2013-01-17 15:56:00,
2013-01-17 10:01:00,28.3,23.5,30.48,East,94,0.0,3.0,82,0.00,,SCT039,0.00,VWS V14.01,2013-01-17 16:01:00,
2013-01-17 10:06:00,28.5,23.7,30.48,ENE,60,1.0,1.0,82,0.00,,SCT039,0.00,VWS V14.01,2013-01-17 16:06:00,
2013-01-17 10:12:00,29.0,24.2,30.48,East,94,0.0,2.0,82,0.00,,SCT039,0.00,VWS V14.01,2013-01-17 16:12:00,
2013-01-17 10:17:00,29.3,23.9,30.48,ENE,69,0.0,1.0,80,0.00,,SCT039,0.00,VWS V14.01,2013-01-17 16:17:00,
2013-01-17 10:22:00,29.7,24.3,30.49,NE,40,2.0,2.0,80,0.00,,SCT039,0.00,VWS V14.01,2013-01-17 16:22:00,
2013-01-17 10:27:00,30.2,24.5,30.49,NE,34,0.0,2.0,79,0.00,,SCT039,0.00,VWS V14.01,2013-01-17 16:27:00,
2013-01-17 10:32:00,30.5,24.8,30.49,NNE,14,1.0,2.0,79,0.00,,SCT039,0.00,VWS V14.01,2013-01-17 16:32:00,
2013-01-17 10:37:00,30.6,24.6,30.49,North,11,2.0,3.0,78,0.00,,SCT039,0.00,VWS V14.01,2013-01-17 16:37:00,
2013-01-17 10:42:00,30.6,24.6,30.49,North,10,0.0,1.0,78,0.00,,SCT030,0.00,VWS V14.01,2013-01-17 16:42:00,
2013-01-17 10:47:00,30.8,25.1,30.49,NE,47,0.0,0.0,79,0.00,,SCT030,0.00,VWS V14.01,2013-01-17 16:47:00,
2013-01-17 10:52:00,31.5,25.8,30.49,SW,235,1.0,3.0,79,0.00,,SCT030,0.00,VWS V14.01,2013-01-17 16:52:00,
2013-01-17 10:57:00,31.8,25.7,30.49,SW,223,1.0,1.0,78,0.00,,SCT030,0.00,VWS V14.01,2013-01-17 16:57:00,
2013-01-17 11:02:00,31.6,25.2,30.49,West,266,0.0,2.0,77,0.00,,SCT030,0.00,VWS V14.01,2013-01-17 17:02:00,
2013-01-17 11:07:00,31.4,25.6,30.49,WSW,256,2.0,3.0,79,0.00,,SCT030,0.00,VWS V14.01,2013-01-17 17:07:00,
2013-01-17 11:12:00,31.5,25.4,30.48,SW,217,2.0,3.0,78,0.00,,SCT030,0.00,VWS V14.01,2013-01-17 17:12:00,
2013-01-17 11:17:00,31.7,25.3,30.48,WSW,247,3.0,6.0,77,0.00,,SCT030,0.00,VWS V14.01,2013-01-17 17:17:00,
2013-01-17 11:22:00,31.7,25.6,30.48,SSW,194,0.0,4.0,78,0.00,,SCT030,0.00,VWS V14.01,2013-01-17 17:22:00,
2013-01-17 11:27:00,32.1,26.0,30.47,West,259,3.0,5.0,78,0.00,,SCT030,0.00,VWS V14.01,2013-01-17 17:27:00,
2013-01-17 11:32:00,32.5,25.8,30.47,WSW,251,4.0,8.0,76,0.00,,SCT030,0.00,VWS V14.01,2013-01-17 17:32:00,
2013-01-17 11:37:00,32.8,26.4,30.47,SW,228,5.0,7.0,77,0.00,,SCT030,0.00,VWS V14.01,2013-01-17 17:37:00,
2013-01-17 11:42:00,32.8,26.4,30.47,WSW,242,8.0,9.0,77,0.00,,SCT030,0.00,VWS V14.01,2013-01-17 17:42:00,
2013-01-17 11:47:00,33.1,26.7,30.46,SW,227,5.0,7.0,77,0.00,,SCT030,0.00,VWS V14.01,2013-01-17 17:47:00,
2013-01-17 11:52:00,33.4,27.6,30.46,WSW,242,4.0,6.0,79,0.00,,SCT030,0.00,VWS V14.01,2013-01-17 17:52:00,
2013-01-17 11:57:00,33.6,27.5,30.46,SSW,210,5.0,6.0,78,0.00,,SCT030,0.00,VWS V14.01,2013-01-17 17:57:00,
2013-01-17 12:02:00,33.9,27.8,30.46,West,262,4.0,6.0,78,0.00,,SCT030,0.00,VWS V14.01,2013-01-17 18:02:00,
2013-01-17 12:07:00,34.0,27.6,30.46,WSW,256,4.0,6.0,77,0.00,,SCT030,0.00,VWS V14.01,2013-01-17 18:07:00,
2013-01-17 12:12:00,34.2,27.8,30.46,WNW,295,2.0,3.0,77,0.00,,SCT030,0.00,VWS V14.01,2013-01-17 18:12:00,
2013-01-17 12:17:00,34.4,27.6,30.45,WSW,249,4.0,5.0,76,0.00,,SCT030,0.00,VWS V14.01,2013-01-17 18:17:00,
2013-01-17 12:22:00,34.6,28.1,30.45,WNW,292,2.0,6.0,77,0.00,,SCT030,0.00,VWS V14.01,2013-01-17 18:22:00,
2013-01-17 12:27:00,34.7,28.2,30.44,SW,226,4.0,6.0,77,0.00,,SCT030,0.00,VWS V14.01,2013-01-17 18:27:00,
2013-01-17 12:32:00,34.9,28.1,30.44,South,186,3.0,6.0,76,0.00,,SCT030,0.00,VWS V14.01,2013-01-17 18:32:00,
2013-01-17 12:37:00,35.4,28.6,30.44,SW,222,3.0,5.0,76,0.00,,SCT030,0.00,VWS V14.01,2013-01-17 18:37:00,
2013-01-17 12:42:00,35.8,29.0,30.44,SW,222,4.0,7.0,76,0.00,,CLR,0.00,VWS V14.01,2013-01-17 18:42:00,
2013-01-17 12:47:00,36.1,29.0,30.44,WSW,253,1.0,2.0,75,0.00,,CLR,0.00,VWS V14.01,2013-01-17 18:47:00,
2013-01-17 12:52:00,36.5,29.3,30.44,South,189,5.0,7.0,75,0.00,,CLR,0.00,VWS V14.01,2013-01-17 18:52:00,
2013-01-17 12:57:00,36.5,29.3,30.43,WSW,243,4.0,7.0,75,0.00,,CLR,0.00,VWS V14.01,2013-01-17 18:57:00,
2013-01-17 13:03:00,36.7,29.5,30.44,WSW,245,4.0,6.0,75,0.00,,CLR,0.00,VWS V14.01,2013-01-17 19:03:00,
2013-01-17 13:08:00,37.4,30.2,30.44,WNW,299,3.0,3.0,75,0.00,,CLR,0.00,VWS V14.01,2013-01-17 19:08:00,
2013-01-17 13:13:00,37.8,29.9,30.43,WSW,239,2.0,3.0,73,0.00,,CLR,0.00,VWS V14.01,2013-01-17 19:13:00,
2013-01-17 13:18:00,37.8,29.9,30.43,WNW,293,0.0,2.0,73,0.00,,CLR,0.00,VWS V14.01,2013-01-17 19:18:00,
2013-01-17 13:23:00,37.9,30.0,30.43,West,259,6.0,6.0,73,0.00,,CLR,0.00,VWS V14.01,2013-01-17 19:23:00,
2013-01-17 13:28:00,38.0,30.1,30.43,SW,235,1.0,4.0,73,0.00,,CLR,0.00,VWS V14.01,2013-01-17 19:28:00,
2013-01-17 13:33:00,38.2,30.7,30.43,WSW,253,3.0,4.0,74,0.00,,CLR,0.00,VWS V14.01,2013-01-17 19:33:00,
2013-01-17 13:38:00,38.4,30.9,30.43,WSW,249,0.0,4.0,74,0.00,,CLR,0.00,VWS V14.01,2013-01-17 19:38:00,
2013-01-17 13:43:00,38.4,30.9,30.43,SSW,212,3.0,4.0,74,0.00,,CLR,0.00,VWS V14.01,2013-01-17 19:43:00,
2013-01-17 13:48:00,38.7,30.8,30.42,WSW,237,6.0,7.0,73,0.00,,CLR,0.00,VWS V14.01,2013-01-17 19:48:00,
2013-01-17 13:53:00,38.7,31.1,30.42,WSW,252,4.0,5.0,74,0.00,,CLR,0.00,VWS V14.01,2013-01-17 19:53:00,
2013-01-17 13:58:00,39.0,31.1,30.43,West,277,4.0,4.0,73,0.00,,CLR,0.00,VWS V14.01,2013-01-17 19:58:00,
2013-01-17 14:03:00,39.3,31.4,30.42,WSW,252,2.0,6.0,73,0.00,,CLR,0.00,VWS V14.01,2013-01-17 20:03:00,
2013-01-17 14:08:00,39.5,31.6,30.42,WSW,258,5.0,6.0,73,0.00,,CLR,0.00,VWS V14.01,2013-01-17 20:08:00,
2013-01-17 14:13:00,39.5,31.6,30.42,WNW,297,1.0,5.0,73,0.00,,CLR,0.00,VWS V14.01,2013-01-17 20:13:00,
2013-01-17 14:18:00,39.5,31.2,30.41,WSW,245,3.0,8.0,72,0.00,,CLR,0.00,VWS V14.01,2013-01-17 20:18:00,
2013-01-17 14:23:00,39.5,31.6,30.41,WNW,285,1.0,5.0,73,0.00,,CLR,0.00,VWS V14.01,2013-01-17 20:23:00,
2013-01-17 14:28:00,39.7,31.8,30.41,WSW,254,9.0,11.0,73,0.00,,CLR,0.00,VWS V14.01,2013-01-17 20:28:00,
2013-01-17 14:33:00,39.2,31.6,30.41,SW,224,4.0,7.0,74,0.00,,CLR,0.00,VWS V14.01,2013-01-17 20:33:00,
2013-01-17 14:38:00,39.3,32.0,30.41,WNW,300,3.0,7.0,75,0.00,,CLR,0.00,VWS V14.01,2013-01-17 20:38:00,
2013-01-17 14:43:00,39.5,31.9,30.41,SW,232,6.0,7.0,74,0.00,,CLR,0.00,VWS V14.01,2013-01-17 20:43:00,
2013-01-17 14:48:00,39.3,32.0,30.41,SW,235,4.0,5.0,75,0.00,,CLR,0.00,VWS V14.01,2013-01-17 20:48:00,
2013-01-17 14:53:00,39.3,32.0,30.41,WSW,258,2.0,8.0,75,0.00,,CLR,0.00,VWS V14.01,2013-01-17 20:53:00,
2013-01-17 14:58:00,39.3,32.0,30.41,WSW,254,5.0,7.0,75,0.00,,CLR,0.00,VWS V14.01,2013-01-17 20:58:00,
2013-01-17 15:03:00,39.3,32.4,30.41,SW,221,4.0,4.0,76,0.00,,CLR,0.00,VWS V14.01,2013-01-17 21:03:00,
2013-01-17 15:08:00,39.6,32.3,30.41,WSW,242,3.0,5.0,75,0.00,,CLR,0.00,VWS V14.01,2013-01-17 21:08:00,
2013-01-17 15:13:00,39.6,32.3,30.41,WSW,252,2.0,3.0,75,0.00,,CLR,0.00,VWS V14.01,2013-01-17 21:13:00,
2013-01-17 15:18:00,39.8,32.5,30.41,WSW,246,1.0,4.0,75,0.00,,CLR,0.00,VWS V14.01,2013-01-17 21:18:00,
2013-01-17 15:23:00,40.0,32.4,30.41,NW,319,1.0,4.0,74,0.00,,CLR,0.00,VWS V14.01,2013-01-17 21:23:00,
2013-01-17 15:28:00,40.2,32.6,30.41,NW,322,2.0,4.0,74,0.00,,CLR,0.00,VWS V14.01,2013-01-17 21:28:00,
2013-01-17 15:33:00,40.2,32.6,30.41,WNW,297,3.0,3.0,74,0.00,,CLR,0.00,VWS V14.01,2013-01-17 21:33:00,
2013-01-17 15:38:00,40.2,32.6,30.41,WNW,296,2.0,2.0,74,0.00,,CLR,0.00,VWS V14.01,2013-01-17 21:38:00,
2013-01-17 15:43:00,40.3,32.7,30.41,WNW,296,2.0,3.0,74,0.00,,CLR,0.00,VWS V14.01,2013-01-17 21:43:00,
2013-01-17 15:48:00,40.4,32.8,30.42,WNW,296,0.0,0.0,74,0.00,,CLR,0.00,VWS V14.01,2013-01-17 21:48:00,
2013-01-17 15:53:00,40.7,32.7,30.42,North,354,0.0,1.0,73,0.00,,CLR,0.00,VWS V14.01,2013-01-17 21:53:00,
2013-01-17 15:59:00,40.9,32.9,30.42,North,354,0.0,1.0,73,0.00,,CLR,0.00,VWS V14.01,2013-01-17 21:59:00,
2013-01-17 16:04:00,41.0,33.0,30.42,North,354,0.0,3.0,73,0.00,,CLR,0.00,VWS V14.01,2013-01-17 22:04:00,
2013-01-17 16:09:00,41.2,32.9,30.42,North,354,0.0,1.0,72,0.00,,CLR,0.00,VWS V14.01,2013-01-17 22:09:00,
2013-01-17 16:14:00,41.5,33.2,30.41,North,354,0.0,0.0,72,0.00,,CLR,0.00,VWS V14.01,2013-01-17 22:14:00,
2013-01-17 16:18:00,41.8,33.1,30.41,North,354,0.0,0.0,71,0.00,,CLR,0.00,VWS V14.01,2013-01-17 22:18:00,
2013-01-17 16:24:00,42.0,32.9,30.41,South,179,1.0,2.0,70,0.00,,CLR,0.00,VWS V14.01,2013-01-17 22:24:00,
2013-01-17 16:29:00,41.6,32.9,30.41,South,191,1.0,2.0,71,0.00,,CLR,0.00,VWS V14.01,2013-01-17 22:29:00,
2013-01-17 16:34:00,41.3,32.6,30.41,South,191,1.0,2.0,71,0.00,,CLR,0.00,VWS V14.01,2013-01-17 22:34:00,
2013-01-17 16:39:00,41.0,32.7,30.41,South,191,0.0,0.0,72,0.00,,CLR,0.00,VWS V14.01,2013-01-17 22:39:00,
2013-01-17 16:44:00,41.0,32.7,30.41,South,191,0.0,0.0,72,0.00,,CLR,0.00,VWS V14.01,2013-01-17 22:44:00,
2013-01-17 16:49:00,40.7,32.4,30.41,South,191,0.0,1.0,72,0.00,,CLR,0.00,VWS V14.01,2013-01-17 22:49:00,
2013-01-17 16:54:00,40.5,32.5,30.41,South,191,0.0,0.0,73,0.00,,CLR,0.00,VWS V14.01,2013-01-17 22:54:00,
2013-01-17 16:59:00,40.4,32.4,30.41,South,191,0.0,0.0,73,0.00,,CLR,0.00,VWS V14.01,2013-01-17 22:59:00,
2013-01-17 17:04:00,40.3,32.3,30.42,South,191,0.0,0.0,73,0.00,,CLR,0.00,VWS V14.01,2013-01-17 23:04:00,
2013-01-17 17:09:00,40.1,32.2,30.42,South,191,0.0,0.0,73,0.00,,CLR,0.00,VWS V14.01,2013-01-17 23:09:00,
2013-01-17 17:14:00,39.8,31.9,30.42,South,191,0.0,0.0,73,0.00,,CLR,0.00,VWS V14.01,2013-01-17 23:14:00,
2013-01-17 17:19:00,39.5,31.9,30.42,South,191,0.0,0.0,74,0.00,,CLR,0.00,VWS V14.01,2013-01-17 23:19:00,
2013-01-17 17:24:00,39.2,31.6,30.42,South,191,0.0,0.0,74,0.00,,CLR,0.00,VWS V14.01,2013-01-17 23:24:00,
2013-01-17 17:29:00,38.9,31.7,30.42,South,191,0.0,0.0,75,0.00,,CLR,0.00,VWS V14.01,2013-01-17 23:29:00,
2013-01-17 17:34:00,38.6,31.4,30.42,South,191,0.0,0.0,75,0.00,,CLR,0.00,VWS V14.01,2013-01-17 23:34:00,
2013-01-17 17:39:00,38.0,31.1,30.42,South,191,0.0,1.0,76,0.00,,CLR,0.00,VWS V14.01,2013-01-17 23:39:00,
2013-01-17 17:44:00,37.5,31.0,30.42,South,191,0.0,1.0,77,0.00,,CLR,0.00,VWS V14.01,2013-01-17 23:44:00,
2013-01-17 17:49:00,37.2,31.0,30.42,SSW,193,0.0,0.0,78,0.00,,CLR,0.00,VWS V14.01,2013-01-17 23:49:00,
2013-01-17 17:54:00,37.0,31.1,30.42,SSW,193,0.0,0.0,79,0.00,,CLR,0.00,VWS V14.01,2013-01-17 23:54:00,
2013-01-17 17:59:00,36.8,30.9,30.42,SSW,193,0.0,0.0,79,0.00,,CLR,0.00,VWS V14.01,2013-01-17 23:59:00,
2013-01-17 18:04:00,36.6,31.0,30.42,SSW,193,0.0,0.0,80,0.00,,CLR,0.00,VWS V14.01,2013-01-18 00:04:00,
2013-01-17 18:09:00,36.2,30.9,30.42,SSW,193,0.0,0.0,81,0.00,,CLR,0.00,VWS V14.01,2013-01-18 00:09:00,
2013-01-17 18:14:00,36.0,30.8,30.42,SSW,193,0.0,0.0,81,0.00,,CLR,0.00,VWS V14.01,2013-01-18 00:14:00,
2013-01-17 18:19:00,35.8,30.9,30.42,SSW,193,0.0,0.0,82,0.00,,CLR,0.00,VWS V14.01,2013-01-18 00:19:00,
2013-01-17 18:24:00,35.9,31.2,30.41,SSW,193,0.0,1.0,83,0.00,,CLR,0.00,VWS V14.01,2013-01-18 00:24:00,
2013-01-17 18:29:00,35.9,31.2,30.42,SSW,193,0.0,0.0,83,0.00,,CLR,0.00,VWS V14.01,2013-01-18 00:29:00,
2013-01-17 18:34:00,35.9,31.2,30.42,SSW,193,0.0,0.0,83,0.00,,CLR,0.00,VWS V14.01,2013-01-18 00:34:00,
2013-01-17 18:39:00,35.8,30.9,30.42,SSW,193,0.0,0.0,82,0.00,,CLR,0.00,VWS V14.01,2013-01-18 00:39:00,
2013-01-17 18:44:00,35.7,31.0,30.42,SSW,193,1.0,1.0,83,0.00,,CLR,0.00,VWS V14.01,2013-01-18 00:44:00,
2013-01-17 18:49:00,35.7,31.0,30.42,SSW,193,0.0,0.0,83,0.00,,CLR,0.00,VWS V14.01,2013-01-18 00:49:00,
2013-01-17 18:54:00,35.6,31.0,30.42,SSW,193,0.0,0.0,83,0.00,,CLR,0.00,VWS V14.01,2013-01-18 00:54:00,
2013-01-17 18:59:00,35.4,30.8,30.42,SSW,193,0.0,0.0,83,0.00,,CLR,0.00,VWS V14.01,2013-01-18 00:59:00,
2013-01-17 19:04:00,35.3,30.7,30.42,SSW,193,0.0,0.0,83,0.00,,CLR,0.00,VWS V14.01,2013-01-18 01:04:00,
2013-01-17 19:09:00,35.2,30.9,30.42,SSW,193,0.0,0.0,84,0.00,,CLR,0.00,VWS V14.01,2013-01-18 01:09:00,
2013-01-17 19:14:00,35.0,30.7,30.41,SSW,193,0.0,0.0,84,0.00,,CLR,0.00,VWS V14.01,2013-01-18 01:14:00,
2013-01-17 19:19:00,34.9,30.9,30.42,SSW,193,0.0,0.0,85,0.00,,CLR,0.00,VWS V14.01,2013-01-18 01:19:00,
2013-01-17 19:24:00,34.9,30.9,30.42,SSW,193,0.0,0.0,85,0.00,,CLR,0.00,VWS V14.01,2013-01-18 01:24:00,
2013-01-17 19:29:00,35.0,31.0,30.42,SSW,193,0.0,0.0,85,0.00,,CLR,0.00,VWS V14.01,2013-01-18 01:29:00,
2013-01-17 19:34:00,35.0,31.0,30.41,SSW,193,0.0,0.0,85,0.00,,CLR,0.00,VWS V14.01,2013-01-18 01:34:00,
2013-01-17 19:40:00,35.0,31.0,30.41,SSW,193,0.0,0.0,85,0.00,,CLR,0.00,VWS V14.01,2013-01-18 01:40:00,
2013-01-17 19:45:00,35.0,31.0,30.41,SSW,193,0.0,0.0,85,0.00,,CLR,0.00,VWS V14.01,2013-01-18 01:45:00,
2013-01-17 19:50:00,34.9,30.9,30.41,SSW,193,0.0,0.0,85,0.00,,CLR,0.00,VWS V14.01,2013-01-18 01:50:00,
2013-01-17 19:55:00,34.8,30.8,30.41,SSW,193,0.0,0.0,85,0.00,,CLR,0.00,VWS V14.01,2013-01-18 01:55:00,
2013-01-17 20:00:00,34.8,31.0,30.41,SSW,193,1.0,1.0,86,0.00,,CLR,0.00,VWS V14.01,2013-01-18 02:00:00,
2013-01-17 20:05:00,34.6,30.6,30.40,SSW,193,1.0,2.0,85,0.00,,CLR,0.00,VWS V14.01,2013-01-18 02:05:00,
2013-01-17 20:10:00,34.4,30.4,30.40,SSW,193,2.0,3.0,85,0.00,,CLR,0.00,VWS V14.01,2013-01-18 02:10:00,
2013-01-17 20:15:00,34.5,30.8,30.40,SSW,192,3.0,3.0,86,0.00,,CLR,0.00,VWS V14.01,2013-01-18 02:15:00,
2013-01-17 20:20:00,34.4,30.4,30.40,South,191,1.0,2.0,85,0.00,,CLR,0.00,VWS V14.01,2013-01-18 02:20:00,
2013-01-17 20:25:00,34.2,30.2,30.40,South,191,2.0,3.0,85,0.00,,CLR,0.00,VWS V14.01,2013-01-18 02:25:00,
2013-01-17 20:30:00,33.9,29.9,30.40,South,191,2.0,3.0,85,0.00,,CLR,0.00,VWS V14.01,2013-01-18 02:30:00,
2013-01-17 20:35:00,33.7,30.0,30.39,South,191,1.0,2.0,86,0.00,,CLR,0.00,VWS V14.01,2013-01-18 02:35:00,
2013-01-17 20:40:00,33.5,29.8,30.39,South,191,1.0,1.0,86,0.00,,CLR,0.00,VWS V14.01,2013-01-18 02:40:00,
2013-01-17 20:45:00,33.3,29.6,30.39,South,191,0.0,0.0,86,0.00,,,0.00,VWS V14.01,2013-01-18 02:45:00,
2013-01-17 20:50:00,33.2,29.8,30.39,South,191,1.0,2.0,87,0.00,,,0.00,VWS V14.01,2013-01-18 02:50:00,
2013-01-17 20:55:00,33.0,29.6,30.39,South,191,0.0,0.0,87,0.00,,,0.00,VWS V14.01,2013-01-18 02:55:00,
2013-01-17 21:00:00,32.9,29.5,30.39,SSE,154,1.0,3.0,87,0.00,,,0.00,VWS V14.01,2013-01-18 03:00:00,
2013-01-17 21:05:00,32.9,29.5,30.39,South,187,1.0,2.0,87,0.00,,,0.00,VWS V14.01,2013-01-18 03:05:00,
2013-01-17 21:10:00,32.9,29.5,30.38,South,187,1.0,1.0,87,0.00,,,0.00,VWS V14.01,2013-01-18 03:10:00,
2013-01-17 21:15:00,32.8,29.1,30.39,South,187,1.0,1.0,86,0.00,,,0.00,VWS V14.01,2013-01-18 03:15:00,
2013-01-17 21:20:00,32.7,29.0,30.39,South,187,0.0,1.0,86,0.00,,,0.00,VWS V14.01,2013-01-18 03:20:00,
2013-01-17 21:25:00,32.5,28.8,30.38,South,187,0.0,0.0,86,0.00,,,0.00,VWS V14.01,2013-01-18 03:25:00,
2013-01-17 21:30:00,32.4,28.7,30.38,South,187,0.0,0.0,86,0.00,,,0.00,VWS V14.01,2013-01-18 03:30:00,
2013-01-17 21:35:00,32.2,28.5,30.38,South,187,0.0,0.0,86,0.00,,,0.00,VWS V14.01,2013-01-18 03:35:00,
2013-01-17 21:40:00,32.1,28.4,30.38,South,187,0.0,0.0,86,0.00,,,0.00,VWS V14.01,2013-01-18 03:40:00,
2013-01-17 21:46:00,31.9,28.5,30.38,South,187,0.0,0.0,87,0.00,,,0.00,VWS V14.01,2013-01-18 03:46:00,
2013-01-17 21:51:00,31.7,28.3,30.38,South,187,1.0,1.0,87,0.00,,,0.00,VWS V14.01,2013-01-18 03:51:00,
2013-01-17 21:56:00,31.7,28.3,30.37,South,187,0.0,0.0,87,0.00,,,0.00,VWS V14.01,2013-01-18 03:56:00,
2013-01-17 22:01:00,31.4,28.0,30.37,South,187,0.0,0.0,87,0.00,,,0.00,VWS V14.01,2013-01-18 04:01:00,
2013-01-17 22:06:00,31.3,27.9,30.37,South,187,0.0,0.0,87,0.00,,,0.00,VWS V14.01,2013-01-18 04:06:00,
2013-01-17 22:11:00,31.1,28.0,30.37,South,187,0.0,0.0,88,0.00,,,0.00,VWS V14.01,2013-01-18 04:11:00,
2013-01-17 22:16:00,31.0,27.9,30.36,South,187,0.0,0.0,88,0.00,,,0.00,VWS V14.01,2013-01-18 04:16:00,
2013-01-17 22:21:00,30.9,27.8,30.36,South,187,0.0,0.0,88,0.00,,,0.00,VWS V14.01,2013-01-18 04:21:00,
2013-01-17 22:26:00,30.7,27.6,30.36,South,187,0.0,0.0,88,0.00,,,0.00,VWS V14.01,2013-01-18 04:26:00,
2013-01-17 22:31:00,30.5,27.4,30.35,South,187,0.0,0.0,88,0.00,,,0.00,VWS V14.01,2013-01-18 04:31:00,
2013-01-17 22:36:00,30.2,27.1,30.35,South,187,1.0,1.0,88,0.00,,,0.00,VWS V14.01,2013-01-18 04:36:00,
2013-01-17 22:41:00,30.2,27.1,30.35,South,187,2.0,2.0,88,0.00,,,0.00,VWS V14.01,2013-01-18 04:41:00,
2013-01-17 22:46:00,30.3,27.2,30.35,South,187,1.0,2.0,88,0.00,,,0.00,VWS V14.01,2013-01-18 04:46:00,
2013-01-17 22:51:00,30.5,27.4,30.35,South,187,3.0,3.0,88,0.00,,,0.00,VWS V14.01,2013-01-18 04:51:00,
2013-01-17 22:56:00,30.8,27.7,30.35,SSW,196,1.0,3.0,88,0.00,,,0.00,VWS V14.01,2013-01-18 04:56:00,
2013-01-17 23:01:00,31.0,27.6,30.35,SSW,196,2.0,2.0,87,0.00,,,0.00,VWS V14.01,2013-01-18 05:01:00,
2013-01-17 23:02:00,31.0,27.6,30.35,SSW,196,1.0,2.0,87,0.00,,,0.00,VWS V14.01,2013-01-18 05:02:00,
2013-01-17 23:07:00,31.0,27.3,30.35,SSW,196,1.0,2.0,86,0.00,,,0.00,VWS V14.01,2013-01-18 05:07:00,
2013-01-17 23:12:00,31.0,27.3,30.35,South,176,2.0,4.0,86,0.00,,,0.00,VWS V14.01,2013-01-18 05:12:00,
2013-01-17 23:17:00,31.2,27.5,30.35,South,187,2.0,4.0,86,0.00,,,0.00,VWS V14.01,2013-01-18 05:17:00,
2013-01-17 23:22:00,31.2,27.2,30.35,SSW,199,2.0,3.0,85,0.00,,,0.00,VWS V14.01,2013-01-18 05:22:00,
2013-01-17 23:27:00,31.2,27.2,30.35,South,186,5.0,6.0,85,0.00,,,0.00,VWS V14.01,2013-01-18 05:27:00,
2013-01-17 23:32:00,31.4,27.4,30.35,SSW,204,3.0,6.0,85,0.00,,,0.00,VWS V14.01,2013-01-18 05:32:00,
2013-01-17 23:37:00,31.4,27.1,30.35,SSW,201,5.0,6.0,84,0.00,,,0.00,VWS V14.01,2013-01-18 05:37:00,
2013-01-17 23:42:00,31.2,26.9,30.34,SSW,203,4.0,5.0,84,0.00,,,0.00,VWS V14.01,2013-01-18 05:42:00,
2013-01-17 23:47:00,31.0,27.0,30.34,SW,218,3.0,3.0,85,0.00,,,0.00,VWS V14.01,2013-01-18 05:47:00,
2013-01-17 23:52:00,30.8,26.8,30.34,SW,218,3.0,3.0,85,0.00,,,0.00,VWS V14.01,2013-01-18 05:52:00,
2013-01-17 23:57:00,30.8,27.1,30.34,SW,218,3.0,3.0,86,0.00,,,0.00,VWS V14.01,2013-01-18 05:57:00,